OPS 4682 DEB, 18670

Orbit data source: Space-Track

OPS 4682 DEB, 18670 is space debris in LEO originally from a launch on Sat, 03 Apr 1965 UTC launched from the Air Force Western Test Range (AFWTR). Debris objects in space refer to the collection of defunct objects orbiting the Earth. Examples of debris include non-operational satellites, rocket bodies, and fragments generated from explosions, collisions, or faulty payload assembly.

Loading next visibility...
Identifier
18670, 1965-027AG
Orbit
LEO
Last TLE update
20 hours ago
Origin
Manufacturer
Unknown
Mission
Spacecraft
Bus & Motor
Unknown
Mass
Unknown
Launch date (UTC)
1965-04-03 (60 years ago)
Launch vehicle
Unknown
Launch site
Air Force Western Test Range (AFWTR)
Object type
Payload
Rocket body
Debris
Shape & HBR
Unknown
Radar Cross Section
Small (<0.1 m²)

Expand to show TLE details & history

TLE from 20 hours ago
0 OPS 4682 DEB
1 18670U 65027AG  25169.44717510 -.00000220  00000-0 -78988-3 0  9993
2 18670  90.2372 348.3591 0024445  19.5528 340.6524 12.96938938615610
Epoch: 2025-06-18T10:43Z
TLE epoch observation values (Epoch: 2025-06-18T10:43:55.928Z)
Latitude
-0.00007°
Longitude
-79.55302°
Altitude
1,259.335 km
Speed
7.234 km/s
True Right ascension
23h 13m 26s
True Declination
0° 00' 00"
Sunlit
Object was in daylight at epoch
Visualization orbit readout
Latitude
-56.09637°
Longitude
-79.18362°
Altitude
1,290.471 km
Speed
7.213 km/s
Apparent Right ascension
02h 44m 04s
Apparent Declination
-59° 24' 11"
Sunlit
Object is in daylight
Visualization observer readout
Local Sidereal Time
17:39:16
Azimuth
140.308° SSE
Elevation
-56.522°
Doppler factor
1
Orbital elements
Apogee altitude
1,289.934 km
Perigee altitude
1,252.536 km
Semi-major axis
7,649.372 km
Eccentricity
0.00244
Inclination
90.2372°
RAAN
348.3591°
Arg. of periapsis
19.5528°
True anomaly
Unknown
Mean anomaly
340.6524°
Eccentric anomaly
Unknown
Mean motion
3.24418 °/min
Orbital period
110.97 mins
BSTAR
-0.00078988
Loading maneuver chart data...
Loading SW <> Apogee altitude chart data...
Loading historical data...
Loading historical data...
Loading historical data...
Loading historical data...
Loading historical data...
Loading historical data...
Loading historical data...

OPS 4682 DEB Visibility forecast

Observer location: undefined°, undefined°

Span
Click to sort rows by Start time (UTC) header in descending order
Start Az.
Max El. time (UTC)
Max El. Az.
Max El.
End time (UTC)
End Az.
11 mins2025-06-19 10:55:44.015Z123.398° SE2025-06-19 11:00:44.015Z79° E23.648°2025-06-19 11:06:44.015Z22.774° NE
13 mins2025-06-19 12:45:44.015Z197.17° SSW2025-06-19 12:51:44.015Z281.17° WNW40.063°2025-06-19 12:58:44.015Z349.561° N
8 mins2025-06-19 22:33:44.015Z45.352° ENE2025-06-19 22:37:44.015Z80.997° E17.057°2025-06-19 22:41:44.015Z114.18° SE
13 mins2025-06-20 00:22:44.015Z359.647° N2025-06-20 00:28:44.015Z289.645° WNW44.618°2025-06-20 00:35:44.015Z189.63° SSW
5 mins2025-06-20 02:16:44.015Z307.15° NW2025-06-20 02:18:44.015Z290.209° WNW13.52°2025-06-20 02:21:44.015Z266.449° W
|